Location: Bella Coola
(52.3721°N, 126.7539°W)
Time: 19:30:16
(UTC-07:00)

ISS - Pass Details

Date: 29 May 2019
Orbit: 408 x 418 km, 51.6° (Epoch: 16 June)

Event Time Altitude Azimuth Distance (km) Brightness Sun altitude
Rises 23:35:57 0° 281° (W) 2,359 0.6 -12.2°
Reaches altitude 10° 23:38:18 10° 267° (W) 1,495 -0.7 -12.4°
Maximum altitude 23:41:01 23° 212° (SSW) 936 -2.3 -12.5°
Enters shadow 23:42:05 20° 184° (S) 1,042 -2.3 -12.6°
